Skip Page Navigation
NASA JPL Caltech
NASA Logo - Jet Propulsion Laboratory + View the NASA Portal
+ Center for Near-Earth Object Studies
JPL Home Earth Solar System Stars & Galaxies Technology
JPL Solar System Dynamics
BODIES ORBITS EPHEMERIDES TOOLS PHYSICAL DATA DISCOVERY FAQ SITE MAP
JPL Small-Body Database Browser
Search: [ help ]  
382995 (2005 GO10)
Classification: Main-belt Asteroid          SPK-ID: 2382995
Ephemeris | Orbit Diagram | Orbital Elements | Mission Design | Physical Parameters | Discovery Circumstances | Close-Approach Data ]

[ show orbit diagram ]
Orbital Elements at Epoch 2459000.5 (2020-May-31.0) TDB
Reference: JPL 14 (heliocentric ecliptic J2000)
 Element Value Uncertainty (1-sigma)   Units 
e .1805278752884674 7.1923e-08  
a 2.752120052012323 2.7032e-08 au
q 2.255285666483752 1.8475e-07 au
i 2.712658606728279 5.7249e-06 deg
node 130.4714747320554 0.0001274 deg
peri 67.43914705093435 0.00012974 deg
M 112.156810805135 1.8971e-05 deg
tp 2458480.955634049627
(2018-Dec-28.45563405)
8.7001e-05 TDB
period 1667.629191660031
4.57
2.457e-05
6.727e-08
d
yr
n .2158753287603704 3.1806e-09 deg/d
Q 3.248954437540895 3.1912e-08 au
  Orbit Determination Parameters
   # obs. used (total)      167  
   data-arc span      7138 days (19.54 yr)  
   first obs. used      2000-02-03  
   last obs. used      2019-08-20  
   planetary ephem.      DE431  
   SB-pert. ephem.      SB431-N16  
   condition code      0  
   norm. resid. RMS      .66782  
   source      ORB  
   producer      Otto Matic  
   solution date      2019-Sep-24 07:00:02  

Additional Information
 Earth MOID = 1.2552 au 
 Jupiter MOID = 1.70845 au 
 T_jup = 3.320 
[ hide covariance matrix ]
Orbital Elements at Epoch 2457219.5 (2015-Jul-16.0) TDB
Reference: JPL 14 (heliocentric ecliptic J2000)
 Element Value Uncertainty (1-sigma)   Units 
e .1791339756785361 7.2138e-08  
q 2.26016498893696 1.8512e-07 au
tp 2456811.626641137256
(2014-Jun-03.12664114)
8.9397e-05 TDB
node 130.515373088582 0.00012757 deg
peri 67.41649357810179 0.00012993 deg
i 2.7103524011089 5.7193e-06 deg
  Orbit Determination Parameters
   # obs. used (total)      167  
   data-arc span      7138 days (19.54 yr)  
   first obs. used      2000-02-03  
   last obs. used      2019-08-20  
   planetary ephem.      DE431  
   SB-pert. ephem.      SB431-N16  
   condition code      0  
   norm. resid. RMS      .66782  
   source      ORB  
   producer      Otto Matic  
   solution date      2019-Sep-24 07:00:02  

Additional Information
 Jupiter MOID = 1.70845 au 
 T_jup = 3.320 
Orbit Covariance (6×6)
  e q tp node peri i
e 5.203870823458628E-15 -1.329767683385604E-14 -1.90666650911235E-12 4.469127582215188E-14 -5.486094300005756E-13 -6.123076314340218E-15
q -1.329767683385604E-14 3.427119410356164E-14 4.855676634310171E-12 -1.156517362605888E-13 1.418650638100579E-12 1.550542533377564E-14
tp -1.90666650911235E-12 4.855676634310171E-12 7.991777192435132E-9 -7.997624639828512E-11 2.237975129493519E-9 3.604941112832033E-13
node 4.469127582215188E-14 -1.156517362605888E-13 -7.997624639828512E-11 1.627295258077927E-8 -1.627628536927482E-8 9.97483137313166E-11
peri -5.486094300005756E-13 1.418650638100579E-12 2.237975129493519E-9 -1.627628536927482E-8 1.688102378672915E-8 -9.957918862862885E-11
i -6.123076314340218E-15 1.550542533377564E-14 3.604941112832033E-13 9.97483137313166E-11 -9.957918862862885E-11 3.271062153116717E-11

Ephemeris | Orbit Diagram | Orbital Elements | Mission Design | Physical Parameters | Discovery Circumstances | Close-Approach Data ]

Physical Parameter Table
Parameter Symbol Value Units Sigma Reference Notes
absolute magnitude H 16.8   n/a MPO434375  

382995 (2005 GO10)          Discovered 2005-Apr-01 by Spacewatch at Kitt Peak
Reference: Last Updated: 2014-01-21

[ show close-approach data ]
Alternate Designations
 2005 GO10 = 2005 EF152 
Ephemeris | Orbit Diagram | Orbital Elements | Mission Design | Physical Parameters | Discovery Circumstances | Close-Approach Data ]
ABOUT SSD CREDITS/AWARDS PRIVACY/COPYRIGHT GLOSSARY LINKS
FirstGov 2020-Oct-01 20:15 UT
(server date/time)  
NASA Home Page
Site Manager:   Ryan S. Park
Webmaster  Alan B. Chamberlin